timestamp,wind_dir_avg,wind_spd_avg,wind_spd_max_dir,wind_spd_gust,battery_voltage,lat,long
2023-12-12 00:04:00+00:00,211.0,8.45,222.0,9.98,12.09,47.59359,-54.27349
2023-12-12 00:14:00+00:00,212.0,11.37,214.0,13.33,12.09,47.59359,-54.27349
2023-12-12 00:24:00+00:00,215.0,9.48,219.0,10.97,12.09,47.59359,-54.27349
2023-12-12 00:34:00+00:00,226.0,11.36,239.0,15.58,12.09,47.59359,-54.27349
2023-12-12 00:44:00+00:00,228.0,8.89,223.0,11.15,12.09,47.59359,-54.27349
2023-12-12 00:54:00+00:00,233.0,7.91,231.0,9.91,12.09,47.59359,-54.27349
2023-12-12 01:04:00+00:00,224.0,9.12,229.0,11.86,12.09,47.59359,-54.27349
2023-12-12 01:14:00+00:00,229.0,9.17,237.0,11.6,12.09,47.59359,-54.27349
2023-12-12 01:24:00+00:00,233.0,10.24,244.0,14.24,12.09,47.59359,-54.27349
2023-12-12 01:34:00+00:00,224.0,10.96,235.0,15.8,12.09,47.59359,-54.27349
2023-12-12 01:44:00+00:00,219.0,13.25,226.0,16.94,12.09,47.59359,-54.27349
2023-12-12 01:54:00+00:00,219.0,13.33,229.0,15.92,12.09,47.59359,-54.27349
2023-12-12 02:04:00+00:00,228.0,13.21,233.0,16.14,12.09,47.59359,-54.27349
2023-12-12 02:14:00+00:00,230.0,13.71,238.0,16.49,12.09,47.59359,-54.27349
2023-12-12 02:24:00+00:00,220.0,13.05,223.0,15.93,12.09,47.59359,-54.27349
2023-12-12 02:34:00+00:00,217.0,13.76,220.0,16.32,12.09,47.59359,-54.27349
2023-12-12 02:44:00+00:00,219.0,11.6,227.0,13.9,12.09,47.59359,-54.27349
2023-12-12 02:54:00+00:00,221.0,9.98,218.0,12.18,12.09,47.59359,-54.27349
2023-12-12 03:04:00+00:00,224.0,10.52,231.0,12.57,12.09,47.59359,-54.27349
2023-12-12 03:14:00+00:00,228.0,11.22,239.0,14.9,12.09,47.59359,-54.27349
2023-12-12 03:24:00+00:00,219.0,10.72,225.0,12.66,12.09,47.59359,-54.27349
2023-12-12 03:34:00+00:00,222.0,12.65,234.0,16.14,12.09,47.59359,-54.27349
2023-12-12 03:44:00+00:00,215.0,17.78,214.0,20.6,12.09,47.59359,-54.27349
2023-12-12 03:54:00+00:00,215.0,18.62,215.0,21.81,12.09,47.59359,-54.27349
2023-12-12 04:04:00+00:00,216.0,18.88,213.0,21.94,12.09,47.59359,-54.27349
2023-12-12 04:14:00+00:00,212.0,18.85,206.0,22.63,12.09,47.59359,-54.27349
2023-12-12 04:24:00+00:00,211.0,18.91,211.0,21.82,12.09,47.59359,-54.27349
2023-12-12 04:34:00+00:00,213.0,19.31,214.0,23.15,12.09,47.59359,-54.27349
2023-12-12 04:44:00+00:00,210.0,18.92,211.0,22.4,12.09,47.59359,-54.27349
2023-12-12 04:54:00+00:00,209.0,20.16,208.0,23.23,12.09,47.59359,-54.27349
2023-12-12 05:04:00+00:00,210.0,20.01,209.0,23.48,12.09,47.59359,-54.27349
2023-12-12 05:14:00+00:00,210.0,20.43,209.0,23.59,12.09,47.59359,-54.27349
2023-12-12 05:24:00+00:00,211.0,19.33,214.0,22.45,12.09,47.59359,-54.27349
2023-12-12 05:34:00+00:00,210.0,20.61,211.0,23.46,12.09,47.59359,-54.27349
2023-12-12 05:44:00+00:00,212.0,20.31,211.0,22.98,12.09,47.59359,-54.27349
2023-12-12 05:54:00+00:00,211.0,20.23,208.0,24.03,12.09,47.59359,-54.27349
2023-12-12 06:04:00+00:00,213.0,20.25,209.0,24.89,12.09,47.59359,-54.27349
2023-12-12 06:14:00+00:00,213.0,20.73,209.0,24.64,12.09,47.59359,-54.27349
2023-12-12 06:24:00+00:00,212.0,20.95,209.0,23.74,12.09,47.59359,-54.27349
2023-12-12 06:34:00+00:00,213.0,19.98,210.0,23.43,12.09,47.59359,-54.27349
2023-12-12 06:44:00+00:00,213.0,20.63,212.0,24.26,12.09,47.59359,-54.27349
2023-12-12 06:54:00+00:00,214.0,17.92,215.0,20.94,12.09,47.59359,-54.27349
2023-12-12 07:04:00+00:00,213.0,19.48,212.0,23.58,12.09,47.59359,-54.27349
2023-12-12 07:14:00+00:00,212.0,17.96,211.0,21.9,12.09,47.59359,-54.27349
2023-12-12 07:24:00+00:00,212.0,18.15,212.0,22.28,12.09,47.59359,-54.27349
2023-12-12 07:34:00+00:00,212.0,19.79,210.0,23.45,12.09,47.59359,-54.27349
2023-12-12 07:44:00+00:00,213.0,19.56,211.0,22.0,12.09,47.59359,-54.27349
2023-12-12 07:54:00+00:00,212.0,19.9,209.0,23.63,12.09,47.59359,-54.27349
2023-12-12 08:04:00+00:00,211.0,19.81,208.0,23.94,12.09,47.59359,-54.27349
2023-12-12 08:14:00+00:00,213.0,19.76,219.0,25.28,12.09,47.59359,-54.27349
2023-12-12 08:24:00+00:00,214.0,20.57,214.0,23.78,12.09,47.59359,-54.27349
2023-12-12 08:34:00+00:00,213.0,21.54,213.0,26.71,12.09,47.59359,-54.27349
2023-12-12 08:44:00+00:00,211.0,19.53,210.0,24.38,12.09,47.59359,-54.27349
2023-12-12 08:54:00+00:00,210.0,18.78,214.0,23.75,12.09,47.59359,-54.27349
2023-12-12 09:04:00+00:00,214.0,16.8,214.0,21.06,12.09,47.59359,-54.27349
2023-12-12 09:14:00+00:00,212.0,16.96,209.0,21.94,12.09,47.59359,-54.27349
2023-12-12 09:24:00+00:00,210.0,17.27,211.0,20.22,12.09,47.59359,-54.27349
2023-12-12 09:34:00+00:00,212.0,18.3,208.0,20.55,12.09,47.59359,-54.27349
2023-12-12 09:44:00+00:00,213.0,18.14,214.0,20.96,12.09,47.59359,-54.27349
2023-12-12 09:54:00+00:00,212.0,17.71,213.0,21.22,12.09,47.59359,-54.27349
2023-12-12 10:04:00+00:00,213.0,18.15,213.0,22.52,12.09,47.59359,-54.27349
2023-12-12 10:14:00+00:00,208.0,20.72,211.0,24.75,12.09,47.59359,-54.27349
2023-12-12 10:24:00+00:00,207.0,22.03,210.0,26.24,12.09,47.59359,-54.27349
2023-12-12 10:34:00+00:00,208.0,19.58,209.0,23.28,12.09,47.59359,-54.27349
2023-12-12 10:44:00+00:00,207.0,22.96,202.0,27.86,12.09,47.59359,-54.27349
2023-12-12 10:54:00+00:00,204.0,21.84,202.0,26.78,12.09,47.59359,-54.27349
2023-12-12 11:04:00+00:00,205.0,19.62,207.0,22.8,12.09,47.59359,-54.27349
2023-12-12 11:14:01+00:00,206.0,21.8,203.0,27.38,12.09,47.59359,-54.27349
2023-12-12 11:24:01+00:00,219.0,16.9,215.0,20.59,12.09,47.59359,-54.27349
2023-12-12 11:34:01+00:00,216.0,18.04,205.0,22.43,12.09,47.59359,-54.27349
2023-12-12 11:44:01+00:00,212.0,20.75,210.0,23.87,12.09,47.59359,-54.27349
2023-12-12 11:54:01+00:00,212.0,20.54,209.0,23.97,12.09,47.59359,-54.27349
2023-12-12 12:04:01+00:00,213.0,19.9,209.0,24.06,12.09,47.59359,-54.27349
2023-12-12 12:14:00+00:00,215.0,19.09,207.0,22.28,12.09,47.59359,-54.27349
2023-12-12 12:24:00+00:00,214.0,19.08,211.0,24.86,12.09,47.59359,-54.27349
2023-12-12 12:34:00+00:00,218.0,17.89,215.0,20.97,12.09,47.59359,-54.27349
2023-12-12 12:44:00+00:00,218.0,17.22,214.0,20.7,12.09,47.59359,-54.27349
2023-12-12 12:54:00+00:00,218.0,15.92,216.0,19.91,12.09,47.59359,-54.27349
2023-12-12 13:04:00+00:00,219.0,17.59,217.0,19.8,12.09,47.59359,-54.27349
2023-12-12 13:14:00+00:00,219.0,14.37,222.0,18.38,12.17,47.59359,-54.27349
2023-12-12 13:24:00+00:00,216.0,13.22,223.0,16.23,12.17,47.59359,-54.27349
2023-12-12 13:34:00+00:00,225.0,14.02,220.0,17.4,12.17,47.59359,-54.27349
2023-12-12 13:44:00+00:00,233.0,13.96,233.0,15.19,12.17,47.59359,-54.27349
2023-12-12 13:54:00+00:00,258.0,16.03,259.0,21.92,12.17,47.59359,-54.27349
2023-12-12 14:04:00+00:00,249.0,13.36,257.0,16.08,12.17,47.59359,-54.27349
2023-12-12 14:14:01+00:00,256.0,13.51,254.0,15.08,12.25,47.59359,-54.27349
2023-12-12 14:24:01+00:00,250.0,12.05,254.0,15.26,12.25,47.59359,-54.27349
2023-12-12 14:34:01+00:00,249.0,13.42,244.0,14.92,12.25,47.59359,-54.27349
2023-12-12 14:44:01+00:00,249.0,13.29,242.0,14.94,12.25,47.59359,-54.27349
2023-12-12 14:54:01+00:00,250.0,12.88,249.0,15.09,12.25,47.59359,-54.27349
2023-12-12 15:04:01+00:00,254.0,13.73,254.0,15.14,12.25,47.59359,-54.27349
2023-12-12 15:14:00+00:00,259.0,14.52,262.0,16.3,12.81,47.59359,-54.27349
2023-12-12 15:24:00+00:00,258.0,14.34,265.0,18.32,12.81,47.59359,-54.27349
2023-12-12 15:34:00+00:00,264.0,13.66,255.0,15.89,12.81,47.59359,-54.27349
2023-12-12 15:44:00+00:00,265.0,10.63,278.0,12.46,12.81,47.59359,-54.27349
2023-12-12 15:54:00+00:00,264.0,13.36,266.0,15.92,12.81,47.59359,-54.27349
2023-12-12 16:04:00+00:00,264.0,14.97,268.0,16.83,12.81,47.59359,-54.27349
2023-12-12 16:14:00+00:00,259.0,15.01,254.0,19.02,13.21,47.59359,-54.27349
2023-12-12 16:24:00+00:00,263.0,13.71,267.0,16.03,13.21,47.59359,-54.27349
2023-12-12 16:34:00+00:00,260.0,15.71,267.0,17.84,13.21,47.59359,-54.27349
2023-12-12 16:44:00+00:00,261.0,14.5,261.0,16.17,13.21,47.59359,-54.27349
2023-12-12 16:54:00+00:00,261.0,12.49,253.0,15.1,13.21,47.59359,-54.27349
2023-12-12 17:04:00+00:00,260.0,15.48,258.0,17.86,13.21,47.59359,-54.27349
2023-12-12 17:14:00+00:00,262.0,13.48,255.0,15.77,13.37,47.59359,-54.27349
2023-12-12 17:24:00+00:00,259.0,14.59,258.0,17.53,13.37,47.59359,-54.27349
2023-12-12 17:34:00+00:00,258.0,14.62,253.0,16.64,13.37,47.59359,-54.27349
2023-12-12 17:44:00+00:00,259.0,13.73,254.0,16.7,13.37,47.59359,-54.27349
2023-12-12 17:54:00+00:00,257.0,14.56,254.0,15.97,13.37,47.59359,-54.27349
2023-12-12 18:04:00+00:00,257.0,17.23,264.0,22.03,13.37,47.59359,-54.27349
2023-12-12 18:14:00+00:00,256.0,15.18,258.0,18.01,14.4,47.59359,-54.27349
2023-12-12 18:24:00+00:00,269.0,15.77,277.0,18.23,14.4,47.59359,-54.27349
2023-12-12 18:34:00+00:00,259.0,15.12,254.0,19.88,14.4,47.59359,-54.27349
2023-12-12 18:44:00+00:00,261.0,15.8,262.0,18.85,14.4,47.59359,-54.27349
2023-12-12 18:54:00+00:00,254.0,15.46,247.0,18.78,14.4,47.59359,-54.27349
2023-12-12 19:04:00+00:00,252.0,13.66,251.0,17.05,14.4,47.59359,-54.27349
2023-12-12 19:14:00+00:00,263.0,14.13,262.0,16.5,13.37,47.59359,-54.27349
2023-12-12 19:24:00+00:00,263.0,14.2,265.0,16.45,13.37,47.59359,-54.27349
2023-12-12 19:34:00+00:00,259.0,12.49,255.0,17.04,13.37,47.59359,-54.27349
2023-12-12 19:44:00+00:00,259.0,14.34,264.0,17.41,13.37,47.59359,-54.27349
2023-12-12 19:54:00+00:00,263.0,12.51,265.0,15.09,13.37,47.59359,-54.27349
2023-12-12 20:04:00+00:00,265.0,13.11,270.0,15.48,13.37,47.59359,-54.27349
2023-12-12 20:14:00+00:00,254.0,12.5,249.0,18.16,12.57,47.59359,-54.27349
2023-12-12 20:24:00+00:00,268.0,14.69,265.0,17.4,12.57,47.59359,-54.27349
2023-12-12 20:34:00+00:00,258.0,12.02,259.0,16.26,12.57,47.59359,-54.27349
2023-12-12 20:44:00+00:00,254.0,13.06,254.0,17.46,12.57,47.59359,-54.27349
2023-12-12 20:54:00+00:00,252.0,11.57,248.0,13.53,12.57,47.59359,-54.27349
2023-12-12 21:04:00+00:00,248.0,9.97,252.0,11.05,12.57,47.59359,-54.27349
2023-12-12 21:14:00+00:00,259.0,11.97,252.0,14.37,12.41,47.59359,-54.27349
2023-12-12 21:24:00+00:00,253.0,10.93,261.0,12.8,12.41,47.59359,-54.27349
2023-12-12 21:34:00+00:00,258.0,10.48,261.0,13.21,12.41,47.59359,-54.27349
2023-12-12 21:44:00+00:00,254.0,11.93,255.0,15.68,12.41,47.59359,-54.27349
2023-12-12 21:54:00+00:00,249.0,10.62,257.0,13.14,12.41,47.59359,-54.27349
2023-12-12 22:04:00+00:00,259.0,9.7,256.0,11.07,12.41,47.59359,-54.27349
2023-12-12 22:14:00+00:00,250.0,11.48,246.0,13.09,12.41,47.59359,-54.27349
2023-12-12 22:24:00+00:00,254.0,13.01,254.0,17.79,12.41,47.59359,-54.27349
2023-12-12 22:34:00+00:00,250.0,13.41,254.0,18.22,12.41,47.59359,-54.27349
2023-12-12 22:44:00+00:00,257.0,12.41,263.0,15.66,12.41,47.59359,-54.27349
2023-12-12 22:54:00+00:00,251.0,11.78,245.0,13.62,12.41,47.59359,-54.27349
2023-12-12 23:04:00+00:00,254.0,11.8,249.0,13.52,12.41,47.59359,-54.27349
2023-12-12 23:14:00+00:00,257.0,11.18,253.0,13.5,12.33,47.59359,-54.27349
2023-12-12 23:24:00+00:00,273.0,16.05,278.0,18.73,12.33,47.59359,-54.27349
2023-12-12 23:34:00+00:00,257.0,12.19,261.0,17.64,12.33,47.59359,-54.27349
2023-12-12 23:44:00+00:00,255.0,11.24,256.0,14.92,12.33,47.59359,-54.27349
2023-12-12 23:54:00+00:00,256.0,10.5,255.0,12.27,12.33,47.59359,-54.27349
